Ottumwa, IA

2:22 AM CDT on April 28, 2017 (GMT -0500)
Ottumwa Industrial

Weather History for KOTM - February, 2012

Change the Weather History Date:

Sunday, February 5, 2012

  Actual Average Record
Temperature  
Mean Temperature 30 °F 24 °F  
Max Temperature 35 °F 33 °F 67 °F (1946)
Min Temperature 25 °F 15 °F -28 °F (1936)
Degree Days  
Heating Degree Days 35 41  
Month to date heating degree days 145 206  
Since 1 July heating degree days 3424 4028  
Cooling Degree Days 0 0  
Month to date cooling degree days 0 0  
Year to date cooling degree days 0 0  
Moisture  
Dew Point 27 °F    
Average Humidity 91    
Maximum Humidity 100    
Minimum Humidity 82    
Precipitation  
Precipitation 0.00 in 0.03 in 1.50 in (1911)
Month to date precipitation 0.44 0.15  
Year to date precipitation 0.69 1.05  
Sea Level Pressure  
Sea Level Pressure 30.34 in    
Wind  
Wind Speed 9 mph (NW)    
Max Wind Speed 18 mph    
Max Gust Speed 21 mph    
Visibility 4 miles    
Events Fog    
T = Trace of Precipitation, MM = Missing Value Source: NWS Daily Summary

Daily Weather History Graph

Daily Weather History Graph

Search for Another Location

Airport or City:

Trip Planner

Search our weather history database for the weather conditions in past years. The results will help you decide how hot, cold, wet, or windy it might be!

Date:

Astronomy

Feb. 05, 2012 Rise Set
Actual Time 7:16 AM CST 5:31 PM CST
Civil Twilight 6:48 AM CST 6:00 PM CST
Nautical Twilight 6:15 AM CST 6:32 PM CST
Astronomical Twilight 5:43 AM CST 7:04 PM CST
Moon 3:29 PM CST (2/5) 5:28 AM CST (2/5)
Length of Visible Light 11h 11m
Length of Day
10h 14m
Waxing Gibbous, 95% of the Moon is Illuminated
Feb 5
Waxing Gibbous
Feb 7
Full
Feb 14
Last Quarter
Feb 21
New
Feb 29
First Quarter

Hourly Weather History & Observations

Time (CST) Temp. Windchill Dew Point Humidity Pressure Visibility Wind Dir Wind Speed Gust Speed Precip Events Conditions
12:53 AM 34.0 °F 25.5 °F 28.9 °F 82% 30.28 in 10.0 mi North 11.5 mph - N/A   Overcast
1:53 AM 32.0 °F 24.2 °F 28.9 °F 88% 30.30 in 10.0 mi NNW 9.2 mph - N/A   Mostly Cloudy
2:53 AM 30.0 °F 21.1 °F 27.0 °F 88% 30.30 in 9.0 mi NNW 10.4 mph - N/A   Mostly Cloudy
3:53 AM 28.0 °F 19.3 °F 26.1 °F 92% 30.30 in 8.0 mi NNW 9.2 mph - N/A   Clear
4:53 AM 27.0 °F 17.3 °F 24.1 °F 89% 30.32 in 8.0 mi NW 10.4 mph - N/A   Partly Cloudy
5:53 AM 26.1 °F 16.8 °F 23.0 °F 88% 30.34 in 7.0 mi NW 9.2 mph - N/A   Clear
6:45 AM 24.8 °F 11.5 °F 23.0 °F 93% 30.32 in 5.0 mi NNW 17.3 mph - N/A   Scattered Clouds
6:53 AM 25.0 °F 13.1 °F 24.1 °F 96% 30.35 in 3.0 mi NNW 13.8 mph - N/A   Mostly Cloudy
7:00 AM 24.8 °F 13.4 °F 24.8 °F 100% 30.32 in 1.8 mi NNW 12.7 mph - N/A   Mostly Cloudy
7:13 AM 26.6 °F 14.7 °F 24.8 °F 93% 30.32 in 0.5 mi NNW 15.0 mph - N/A Fog Light Freezing Fog
7:24 AM 26.6 °F 15.2 °F 24.8 °F 93% 30.33 in 0.2 mi NNW 13.8 mph - N/A Fog Light Freezing Fog
7:53 AM 27.0 °F 15.6 °F 27.0 °F 100% 30.36 in 0.2 mi North 13.8 mph - N/A Fog Light Freezing Fog
8:06 AM 26.6 °F 15.2 °F 26.6 °F 100% 30.33 in 0.5 mi NNW 13.8 mph - N/A Fog Light Freezing Fog
8:14 AM 28.4 °F 17.0 °F 26.6 °F 93% 30.33 in 0.2 mi North 15.0 mph - N/A Fog Light Freezing Fog
8:23 AM 28.4 °F 18.0 °F 26.6 °F 93% 30.33 in 0.5 mi North 12.7 mph - N/A Fog Light Freezing Fog
8:53 AM 28.9 °F 19.2 °F 28.0 °F 96% 30.37 in 1.0 mi NNW 11.5 mph - N/A   Overcast
9:29 AM 28.4 °F 20.4 °F 28.4 °F 100% 30.35 in 2.0 mi NNW 8.1 mph - N/A   Overcast
9:48 AM 28.4 °F 19.7 °F 28.4 °F 100% 30.35 in 3.0 mi NNW 9.2 mph - N/A   Overcast
9:53 AM 30.0 °F 20.5 °F 28.9 °F 96% 30.38 in 3.0 mi NNW 11.5 mph - N/A   Overcast
10:53 AM 30.0 °F 21.7 °F 28.9 °F 96% 30.39 in 5.0 mi North 9.2 mph - N/A   Overcast
11:53 AM 30.9 °F 22.2 °F 28.9 °F 92% 30.38 in 6.0 mi NNW 10.4 mph - N/A   Overcast
12:53 PM 32.0 °F 24.2 °F 28.9 °F 88% 30.38 in 7.0 mi North 9.2 mph - N/A   Overcast
1:53 PM 32.0 °F 25.6 °F 30.0 °F 92% 30.37 in 6.0 mi NW 6.9 mph - N/A   Overcast
2:53 PM 30.9 °F 22.8 °F 28.9 °F 92% 30.37 in 6.0 mi NNW 9.2 mph - N/A   Overcast
3:53 PM 30.9 °F 26.2 °F 28.9 °F 92% 30.37 in 3.0 mi NW 4.6 mph - N/A   Overcast
4:53 PM 30.0 °F 25.2 °F 28.0 °F 92% 30.38 in 4.0 mi WNW 4.6 mph - N/A   Overcast
5:53 PM 28.9 °F 21.9 °F 27.0 °F 92% 30.38 in 6.0 mi NW 6.9 mph - N/A   Overcast
6:53 PM 28.9 °F 22.8 °F 27.0 °F 92% 30.38 in 4.0 mi NW 5.8 mph - N/A   Overcast
7:51 PM 28.4 °F 22.2 °F 26.6 °F 93% 30.33 in 3.0 mi WNW 5.8 mph - N/A   Overcast
7:53 PM 28.9 °F 21.9 °F 27.0 °F 92% 30.37 in 3.0 mi WNW 6.9 mph - N/A   Overcast
8:53 PM 28.0 °F 22.8 °F 26.1 °F 92% 30.35 in 5.0 mi NW 4.6 mph - N/A   Overcast
9:53 PM 28.0 °F 20.8 °F 26.1 °F 92% 30.34 in 3.0 mi NNW 6.9 mph - N/A   Overcast
10:14 PM 26.6 °F 19.1 °F 26.6 °F 100% 30.30 in 2.5 mi NW 6.9 mph - N/A   Overcast
10:50 PM 26.6 °F 20.0 °F 26.6 °F 100% 30.29 in 1.5 mi WNW 5.8 mph - N/A   Overcast
10:53 PM 27.0 °F 21.6 °F 26.1 °F 96% 30.32 in 1.2 mi NW 4.6 mph - N/A   Overcast
11:40 PM 26.6 °F 20.0 °F 26.6 °F 100% 30.29 in 0.8 mi WNW 5.8 mph - N/A   Mist
11:53 PM 27.0 °F 19.5 °F 26.1 °F 96% 30.32 in 1.0 mi West 6.9 mph - N/A   Overcast